sat.trackr.live / text

‹ back to catalog

STARLINK-36096

NORAD 66949 · 2025-286AA

PAYLOAD ACTIVE UNKNOWN

§ Identity

Operator
Country
US
Launch date
2025-12-07
Launch site
AFWTR
Launch vehicle
Mass (kg)
RCS (m²)

Purposes: comms

External: N2YO · Heavens-Above · Gunter

§ Orbital elements

Epoch: 2026-09-20T06:00:40.169088Z

Period
93.85 min
Inclination
53.1579°
Eccentricity
0.0000992
Mean motion
15.34409205 rev/d
Perigee alt
462.0 km
Apogee alt
463.4 km
Semi-major
6,840.8 km
B*
4.7103e-4
RAAN
170.5697°
Arg perigee
100.9954°
Mean anomaly
259.1160°
Rev number
4,526

§ Raw data

STARLINK-360961 66949U 25286AA  26263.25046492  .00015576  00000+0  47103-3 0  99992 66949  53.1579 170.5697 0000992 100.9954 259.1160 15.34409205 45263

JSON: /api/v1/satellites/66949 · /tle

For live sub-satellite position, see the globe view (requires WebGL).

§ Visibility from observer

Set your observer location to see the next 7 days of passes ≥ 10°. The values pass through the URL so the page stays shareable.

No JS? Fill the form by hand. The geolocation button needs JavaScript.